COSMOS 1275 DEB, 13074

Orbit data source: Space-Track

COSMOS 1275 DEB, 13074 is space debris in LEO originally from a launch on Thu, 04 Jun 1981 UTC launched from the Plesetsk Missile And Space Complex (PKMTR). Debris objects in space refer to the collection of defunct objects orbiting the Earth. Examples of debris include non-operational satellites, rocket bodies, and fragments generated from explosions, collisions, or faulty payload assembly.

Loading next visibility...
Identifier
13074, 1981-053FA
Orbit
LEO
Country
Flag of CISCIS
Related business
Manufacturer
Unknown
Mission
Spacecraft
Bus & Motor
Unknown
Mass
Unknown
Launch date (UTC)
1981-06-04 (45 years ago)
Launch vehicle
Unknown
Launch site
Plesetsk Missile And Space Complex (PKMTR)
Object type
Payload
Rocket body
Debris
Shape & HBR
Unknown shape, 0.1 m
Radar Cross Section
Medium (>0.1 m² and <1 m²)

Expand to show TLE details & history
Last TLE update: 21 hours ago

TLE from 21 hours ago
0 COSMOS 1275 DEB
1 13074U 81053FA  26254.64891162  .00000356  00000-0  30368-3 0  9995
2 13074  82.9436 114.0631 0031234   2.0641  52.5643 13.84393657268472
Epoch: 2026-09-11T15:34Z
TLE epoch observation values (Epoch: 2026-09-11T15:34:25.963Z)
Latitude
54.39813°
Longitude
-100.31108°
Altitude
943.444 km
Speed
7.392 km/s
True Right ascension
08h 15m 51s
True Declination
54° 14' 22"
Sunlit
Object was in daylight at epoch
Visualization orbit readout
Latitude
Unknown
Longitude
Unknown
Altitude
Unknown
Speed
Unknown
Apparent Right ascension
Unknown
Apparent Declination
Unknown
Sunlit
N/A
Visualization observer readout
Local Sidereal Time
04:45:00
Azimuth
Unknown
Elevation
Unknown
Doppler factor
Unknown
Orbital elements
Apogee altitude
968.355 km
Perigee altitude
922.605 km
Semi-major axis
7,323.617 km
Eccentricity
0.00312
Inclination
82.9436°
RAAN
114.0631°
Arg. of periapsis
2.0641°
True anomaly
52.84917°
Mean anomaly
52.5643°
Eccentric anomaly
52.70667°
Mean motion
3.46302 °/min
Orbital period
103.96 mins
BSTAR
0.00030368
Loading maneuver chart data...
Computing Atmospheric mass density...
Loading historical data...
Loading historical data...
Loading historical data...
Loading historical data...
Loading historical data...
Loading historical data...
Loading historical data...

Documentation

Showing up to 5 results
|